Cloud_Cover
5 83 24 92 68 84 10 100 100 98 100 2 0 5 98 44 100 100 100 2 47 52 37 66 40 100 100 100 100 58 33 39 100 100 92 100 100 100 100 98 100 100 100
82 22 1 19 75 60 10 77 7 10 8 1 0 9 100 100 100 84 5 5 63 98 30 40 100 91 100 100 100 100 100 91 100 98 100 95 83 100 100 94 60 58 99
0 0 1 7 0 3 1 0 0 4 3 22 59 22 100 100 100 100 100 100 100 94 100 100 56 100 92 77 100 100 100 100 100 100 100 100 100 100 100 98 74 26 34
19 41 0 0 7 3 14 44 38 27 0 0 49 88 100 100 100 100 100 100 100 100 100 94 74 51 97 44 64 100 100 100 100 100 98 99 100 100 100 100 100 100 78
0 0 0 0 0 0 5 66 46 82 73 84 89 59 98 100 100 100 100 100 100 100 100 100 100 74 93 100 64 100 100 100 100 100 100 100 100 100 99 88 98 98 97
0 0 0 0 0 6 14 0 86 85 100 100 75 86 64 100 100 100 100 100 100 100 84 100 100 100 100 100 100 100 100 100 100 100 100 100 100 100 100 100 100 100 100
0 5 0 0 0 0 25 100 100 100 100 73 52 100 100 100 100 100 100 100 100 100 100 100 100 100 96 99 100 100 100 100 100 96 88 89 100 100 100 93 96 100 100
5 3 0 0 0 0 1 93 100 100 84 100 100 100 100 100 100 100 100 100 100 100 100 100 100 99 75 49 87 100 100 100 100 100 100 100 100 100 96 100 100 100 100
0 0 0 0 0 0 0 68 100 86 47 100 100 100 100 100 13 92 77 100 100 100 100 100 100 100 100 100 100 100 100 100 100 69 100 100 100 100 100 100 100 100 100
0 0 0 0 0 0 0 4 98 85 85 100 100 100 100 79 59 2 28 100 94 100 100 100 100 100 100 100 100 86 56 100 98 99 75 86 98 60 52 65 90 85 100
13 29 39 33 18 50 0 2 23 92 100 100 100 100 66 74 88 86 19 82 100 60 100 100 100 100 100 100 100 83 96 100 100 81 84 40 100 99 100 99 100 98 100
66 100 91 96 94 84 17 0 8 88 100 100 100 100 89 100 100 92 85 100 58 85 100 100 100 100 100 100 100 100 99 81 45 5 5 60 66 100 84 99 98 97 82
65 56 63 82 100 100 39 50 6 82 100 100 100 100 100 100 63 98 100 100 96 83 100 100 100 100 100 100 100 100 100 100 99 82 34 6 35 49 68 31 42 66 72
100 100 100 100 100 100 100 100 71 100 100 100 100 100 100 100 100 100 100 100 100 100 100 100 100 100 100 100 100 100 100 100 100 100 80 100 100 100 100 94 100 79 36
97 100 100 100 100 100 100 100 100 100 100 100 100 100 100 100 100 100 100 100 100 100 100 100 100 100 100 100 100 100 100 100 100 100 100 100 100 100 100 100 89 44 81
33 100 100 100 100 100 100 100 100 100 100 100 100 100 100 100 100 100 100 100 100 100 98 100 100 100 100 100 100 100 100 100 100 100 100 100 100 98 85 60 70 12 90
82 100 100 93 100 100 100 100 100 100 100 96 100 100 100 100 100 100 100 100 100 100 100 100 100 100 100 100 100 100 100 100 100 100 100 100 100 100 42 45 99 24 98
91 85 95 68 96 100 100 100 100 100 100 100 100 100 100 100 100 100 100 100 100 100 100 100 100 100 100 100 100 100 100 100 100 100 100 100 100 100 77 91 52 51 57
7 5 5 10 32 80 100 100 100 100 100 100 100 100 100 100 100 100 100 100 100 100 100 100 100 100 100 100 99 100 100 100 100 100 100 97 89 75 32 50 68 79 40
29 14 99 100 57 66 39 89 88 100 100 100 100 100 100 100 100 100 100 100 100 100 100 100 100 100 100 100 100 100 99 67 100 100 100 73 86 46 6 69 81 30 100
100 87 63 100 75 100 100 98 100 100 100 100 100 100 100 100 100 100 100 100 100 100 100 100 100 100 100 100 100 100 100 100 100 56 91 7 5 10 14 58 85 100 100
100 99 100 98 100 66 99 98 100 100 100 100 100 100 100 100 100 100 100 100 100 100 100 100 100 100 100 100 100 100 5 10 52 70 66 45 47 52 66 79 80 100 99
100 100 100 100 45 94 100 100 100 100 100 100 100 100 100 100 100 100 100 100 100 100 100 100 100 100 100 100 98 95 93 100 98 47 66 93 100 72 65 100 27 99 100
50 100 99 11 60 100 100 100 100 100 100 100 100 100 100 100 100 100 100 100 100 100 100 100 100 100 100 100 85 56 100 57 100 44 67 36 15 56 99 69 12 21 83
89 62 46 99 100 100 100 100 100 100 100 100 100 100 100 100 100 100 100 100 100 100 100 100 100 100 100 100 100 100 100 74 27 73 44 23 33 38 25 61 21 51 39
72 64 96 100 100 100 100 100 100 100 100 100 100 100 100 100 100 100 100 100 100 100 100 100 100 100 100 73 88 95 100 97 44 84 10 4 39 48 57 33 54 29 6